Location: Hope
(40.9110°N, 74.9680°W)
Time: 03:59:43
(UTC-05:00)

Tiangong 1 - Visible Passes

Search period start: 18 February 2018 00:00
Search period end: 28 February 2018 00:00
Orbit: 249 x 272 km, 42.8° (Epoch: 17 February)

Date Brightness Start Highest point End Pass type
(mag) Time Alt. Az. Time Alt. Az. Time Alt. Az.
18 Feb 1.3 05:43:04 29° SW 05:43:25 31° SSW 05:45:30 10° SE visible
19 Feb 2.1 05:38:06 20° SSW 05:38:06 20° SSW 05:39:45 10° SSE visible
20 Feb 3.0 05:33:00 11° S 05:33:00 11° S 05:33:23 10° S visible
